Regional Weather Roundup
Issued by NWS

Home | Current Version | Previous Version | Text Only | Print | Product List | Glossary On
Versions: 1 2 3 4 5 6 7 8 9 10 11 12 13 14 15 16 17 18 19 20 21 22 23 24 25 26 27 28 29 30 31 32 33 34 35 36 37 38 39 40 41 42 43 44 45 46 47 48 49 50
000
ASUS44 KMEG 270210
RWRTN
TENNESSEE HOURLY STATE WEATHER ROUNDUP
NATIONAL WEATHER SERVICE MEMPHIS TN
900 PM CDT THU MAY 26 2016

TNZ002-004-019-021-049-052-054-088>092-270300-
WEST TENNESSEE

CITY           SKY/WX    TMP DP  RH WIND       PRES   REMARKS
MEMPHIS INTL   CLOUDY    73  66  78 E18       29.96R THUNDER
NWS MEMPHIS      N/A     71 N/A N/A MISG        N/A
JACKSON        LGT RAIN  68  66  93 N6        30.02F
DYERSBURG      CLOUDY    66  64  94 SE13G18   30.04R THUNDER
UNION CITY     CLOUDY    66  66 100 S13       30.03R
PARIS          PTCLDY    64  63  94 SE6       30.01F
$$

TNZ008-025-027-028-033-062-065-066-270300-
NORTH MIDDLE TENNESSEE

CITY           SKY/WX    TMP DP  RH WIND       PRES   REMARKS
NASHVILLE      CLOUDY    70  65  84 E6        30.06S
CLARKSVILLE    CLOUDY    68  65  90 S6        29.99F
SMYRNA         CLOUDY    71  65  81 N7        30.06F
COOKEVILLE     PTCLDY    70  64  83 SE7       30.05S
CROSSVILLE     CLOUDY    68  60  75 CALM      30.11S
$$

TNZ061-075-076-078-094-096-097-270300-
SOUTH MIDDLE TENNESSEE

CITY           SKY/WX    TMP DP  RH WIND       PRES   REMARKS
FAYETTEVILLE   CLEAR     79  61  53 CALM      30.05R
TULLAHOMA      CLEAR     75  63  64 S3        30.06S
WINCHESTER     CLEAR     72  63  73 CALM      30.06R
MCMINNVILLE    CLEAR     72  66  83 CALM      30.06R
SHELBYVILLE    PTCLDY    72  64  78 N10       30.06S
$$

TNZ017-018-042-046-047-270300-
NORTHEAST TENNESSEE

CITY           SKY/WX    TMP DP  RH WIND       PRES   REMARKS
TRI CITIES     PTCLDY    66  63  90 CALM      30.11F
$$

TNZ012-013-036-069-073-074-270300-
CENTRAL EAST TENNESSEE

CITY           SKY/WX    TMP DP  RH WIND       PRES   REMARKS
KNOXVILLE      CLEAR     74  62  66 NE6       30.06F
OAK RIDGE      CLOUDY    73  63  70 E3        30.08F
GATLINBURG     CLOUDY    70  64  83 NE3       30.09S
$$

TNZ083-085-099-270300-
SOUTHEAST TENNESSEE

CITY           SKY/WX    TMP DP  RH WIND       PRES   REMARKS
CHATTANOOGA    MOCLDY    78  61  55 CALM      30.04S
$$

SKY/WX REPORTED AS FAIR MEANS FEW OR NO CLOUDS BELOW
12 THOUSAND FEET.




USA.gov is the U.S. government's official web portal to all federal, state and local government web resources and services.